Egegik, AK

8:00 AM AKST on February 27, 2017 (GMT -0900)
Egegik

Weather History for PAII - November, 2013

Change the Weather History Date:

Saturday, November 30, 2013

  Actual Average (PAKN) Record (PAKN)
Temperature  
Mean Temperature 12 °F -  
Max Temperature 17 °F 21 °F 50 °F (2007)
Min Temperature 6 °F 5 °F -22 °F (1987)
Degree Days  
Heating Degree Days 54    
Moisture  
Dew Point 7 °F    
Average Humidity 80    
Maximum Humidity 92    
Minimum Humidity 72    
Precipitation  
Precipitation 0.00 in - - ()
Sea Level Pressure  
Sea Level Pressure 30.45 in    
Wind  
Wind Speed 4 mph (NNE)    
Max Wind Speed 14 mph    
Max Gust Speed 20 mph    
Visibility 10 miles    
Events      
Averages and records for this station are not official NWS values.
T = Trace of Precipitation, MM = Missing Value Source: NWS Daily Summary

Daily Weather History Graph

Daily Weather History Graph

Search for Another Location

Airport or City:

Trip Planner

Search our weather history database for the weather conditions in past years. The results will help you decide how hot, cold, wet, or windy it might be!

Date:

Astronomy

Nov. 30, 2013 Rise Set
Actual Time 9:49 AM AKST 4:46 PM AKST
Civil Twilight 9:00 AM AKST 5:36 PM AKST
Nautical Twilight 8:08 AM AKST 6:27 PM AKST
Astronomical Twilight 7:21 AM AKST 7:15 PM AKST
Moon 6:43 AM AKST (11/30) 3:44 PM AKST (11/30)
Length of Visible Light 8h 36m
Length of Day
6h 56m
Waning Crescent, 6% of the Moon is Illuminated
Nov 30
Waning Crescent
Dec 2
New
Dec 9
First Quarter
Dec 17
Full
Dec 25
Last Quarter

Hourly Weather History & Observations

Time (AKST) Temp. Windchill Dew Point Humidity Pressure Visibility Wind Dir Wind Speed Gust Speed Precip Events Conditions
12:16 AM 14.0 °F - 6.8 °F 73% 30.38 in 10.0 mi Calm Calm - N/A   Overcast
12:36 AM 14.0 °F - 6.8 °F 73% 30.38 in 10.0 mi Calm Calm - N/A   Overcast
12:56 AM 12.2 °F 6.1 °F 6.8 °F 79% 30.38 in 10.0 mi East 3.5 mph - N/A   Overcast
1:16 AM 12.2 °F 6.1 °F 6.8 °F 79% 30.39 in 10.0 mi East 3.5 mph - N/A   Overcast
1:36 AM 12.2 °F 6.1 °F 6.8 °F 79% 30.39 in 10.0 mi East 3.5 mph - N/A   Overcast
1:56 AM 12.2 °F 6.1 °F 6.8 °F 79% 30.40 in 10.0 mi East 3.5 mph - N/A   Overcast
2:16 AM 12.2 °F 6.1 °F 6.8 °F 79% 30.39 in 10.0 mi East 3.5 mph - N/A   Overcast
2:36 AM 12.2 °F - 6.8 °F 79% 30.39 in 10.0 mi Calm Calm - N/A   Overcast
2:56 AM 12.2 °F - 6.8 °F 79% 30.39 in 10.0 mi Calm Calm - N/A   Overcast
3:16 AM 14.0 °F 8.2 °F 8.6 °F 79% 30.39 in 10.0 mi NNE 3.5 mph - N/A   Mostly Cloudy
3:36 AM 12.2 °F 4.3 °F 6.8 °F 79% 30.39 in 10.0 mi NNE 4.6 mph - N/A   Partly Cloudy
3:56 AM 12.2 °F - 6.8 °F 79% 30.40 in 10.0 mi Calm Calm - N/A   Clear
4:16 AM 10.4 °F - 5.0 °F 79% 30.39 in 10.0 mi Calm Calm - N/A   Clear
4:36 AM 10.4 °F - 6.8 °F 85% 30.40 in 10.0 mi Calm Calm - N/A   Clear
4:56 AM 10.4 °F - 5.0 °F 79% 30.40 in 10.0 mi Calm Calm - N/A   Clear
5:16 AM 10.4 °F 2.2 °F 6.8 °F 85% 30.40 in 10.0 mi NNE 4.6 mph - N/A   Clear
5:36 AM 12.2 °F 4.3 °F 6.8 °F 79% 30.40 in 10.0 mi NNE 4.6 mph - N/A   Clear
5:56 AM 12.2 °F 4.3 °F 6.8 °F 79% 30.41 in 10.0 mi North 4.6 mph - N/A   Clear
6:16 AM 10.4 °F 2.2 °F 5.0 °F 79% 30.42 in 10.0 mi North 4.6 mph - N/A   Clear
6:36 AM 10.4 °F 4.0 °F 8.6 °F 92% 30.42 in 10.0 mi NNE 3.5 mph - N/A   Clear
6:56 AM 12.2 °F 4.3 °F 8.6 °F 85% 30.42 in 10.0 mi North 4.6 mph - N/A   Clear
7:16 AM 12.2 °F 4.3 °F 8.6 °F 85% 30.42 in 10.0 mi North 4.6 mph - N/A   Clear
7:36 AM 12.2 °F 2.9 °F 8.6 °F 85% 30.42 in 10.0 mi North 5.8 mph - N/A   Clear
7:56 AM 12.2 °F 2.9 °F 8.6 °F 85% 30.42 in 10.0 mi North 5.8 mph - N/A   Clear
8:16 AM 10.4 °F - 8.6 °F 92% 30.42 in 10.0 mi Calm Calm - N/A   Clear
8:36 AM 8.6 °F - 5.0 °F 85% 30.42 in 10.0 mi Calm Calm - N/A   Clear
8:56 AM 8.6 °F - 3.2 °F 79% 30.42 in 10.0 mi Calm Calm - N/A   Clear
9:16 AM 8.6 °F 2.0 °F 5.0 °F 85% 30.43 in 10.0 mi East 3.5 mph - N/A   Clear
9:36 AM 6.8 °F - 5.0 °F 92% 30.43 in 10.0 mi Calm Calm - N/A   Clear
9:56 AM 6.8 °F -0.1 °F 3.2 °F 85% 30.43 in 10.0 mi SSE 3.5 mph - N/A   Clear
10:16 AM 6.8 °F -2.0 °F 3.2 °F 85% 30.43 in 10.0 mi South 4.6 mph - N/A   Clear
10:36 AM 8.6 °F 2.0 °F 5.0 °F 85% 30.44 in 10.0 mi South 3.5 mph - N/A   Clear
10:56 AM 10.4 °F 0.8 °F 8.6 °F 92% 30.44 in 10.0 mi North 5.8 mph - N/A   Clear
11:16 AM 14.0 °F 5.1 °F 10.4 °F 86% 30.44 in 10.0 mi North 5.8 mph - N/A   Clear
11:36 AM 15.8 °F 7.2 °F 10.4 °F 79% 30.44 in 10.0 mi North 5.8 mph - N/A   Clear
11:56 AM 15.8 °F 6.1 °F 10.4 °F 79% 30.45 in 10.0 mi North 6.9 mph - N/A   Clear
12:16 PM 15.8 °F 6.1 °F 12.2 °F 86% 30.45 in 10.0 mi North 6.9 mph - N/A   Clear
12:36 PM 17.6 °F 8.2 °F 12.2 °F 79% 30.45 in 10.0 mi North 6.9 mph - N/A   Clear
12:56 PM 17.6 °F 8.2 °F 12.2 °F 79% 30.45 in 10.0 mi North 6.9 mph - N/A   Clear
1:16 PM 17.6 °F 7.3 °F 12.2 °F 79% 30.45 in 10.0 mi North 8.1 mph - N/A   Clear
1:36 PM 17.6 °F 9.3 °F 12.2 °F 79% 30.45 in 10.0 mi North 5.8 mph - N/A   Clear
1:56 PM 17.6 °F 9.3 °F 12.2 °F 79% 30.45 in 10.0 mi NNE 5.8 mph - N/A   Clear
2:16 PM 17.6 °F 9.3 °F 12.2 °F 79% 30.46 in 10.0 mi North 5.8 mph - N/A   Clear
2:36 PM 17.6 °F 10.7 °F 12.2 °F 79% 30.46 in 10.0 mi North 4.6 mph - N/A   Clear
2:56 PM 17.6 °F 10.7 °F 12.2 °F 79% 30.46 in 10.0 mi North 4.6 mph - N/A   Clear
3:16 PM 17.6 °F 8.2 °F 12.2 °F 79% 30.46 in 10.0 mi North 6.9 mph - N/A   Clear
3:36 PM 17.6 °F 8.2 °F 12.2 °F 79% 30.47 in 10.0 mi North 6.9 mph - N/A   Clear
3:56 PM 17.6 °F 8.2 °F 12.2 °F 79% 30.48 in 10.0 mi North 6.9 mph - N/A   Clear
4:16 PM 15.8 °F 6.1 °F 10.4 °F 79% 30.49 in 10.0 mi North 6.9 mph - N/A   Clear
4:36 PM 15.8 °F 5.1 °F 10.4 °F 79% 30.49 in 10.0 mi NNE 8.1 mph - N/A   Clear
4:56 PM 15.8 °F 5.1 °F 10.4 °F 79% 30.49 in 10.0 mi NNE 8.1 mph - N/A   Clear
5:16 PM 15.8 °F 3.4 °F 8.6 °F 73% 30.49 in 10.0 mi North 10.4 mph 16.1 mph N/A   Clear
5:36 PM 14.0 °F 2.0 °F 8.6 °F 79% 30.50 in 10.0 mi NNE 9.2 mph - N/A   Clear
5:56 PM 14.0 °F 2.9 °F 6.8 °F 73% 30.50 in 10.0 mi North 8.1 mph - N/A   Clear
6:16 PM 12.2 °F -1.0 °F 6.8 °F 79% 30.50 in 10.0 mi North 10.4 mph - N/A   Clear
6:36 PM 12.2 °F -0.2 °F 6.8 °F 79% 30.50 in 10.0 mi North 9.2 mph - N/A   Clear
6:56 PM 12.2 °F 4.3 °F 8.6 °F 85% 30.51 in 10.0 mi NNE 4.6 mph - N/A   Clear
7:16 PM 10.4 °F -0.4 °F 3.2 °F 73% 30.51 in 10.0 mi North 6.9 mph - N/A   Clear
7:36 PM 10.4 °F 2.2 °F 3.2 °F 73% 30.51 in 10.0 mi North 4.6 mph - N/A   Clear
7:56 PM 10.4 °F 4.0 °F 5.0 °F 79% 30.52 in 10.0 mi NNE 3.5 mph - N/A   Clear
8:16 PM 8.6 °F -2.6 °F 3.2 °F 79% 30.51 in 10.0 mi NNE 6.9 mph - N/A   Clear
8:36 PM 10.4 °F -4.1 °F 3.2 °F 73% 30.50 in 10.0 mi NNE 11.5 mph - N/A   Clear
8:56 PM 8.6 °F -3.7 °F 3.2 °F 79% 30.52 in 10.0 mi NE 8.1 mph - N/A   Clear
9:16 PM 8.6 °F -5.5 °F 1.4 °F 73% 30.51 in 10.0 mi NNE 10.4 mph - N/A   Clear
9:36 PM 8.6 °F -4.7 °F 1.4 °F 73% 30.51 in 10.0 mi North 9.2 mph - N/A   Clear
9:56 PM 8.6 °F -4.7 °F 1.4 °F 73% 30.53 in 10.0 mi NNE 9.2 mph - N/A   Clear
10:16 PM 8.6 °F -5.5 °F 1.4 °F 73% 30.52 in 10.0 mi NNE 10.4 mph 17.3 mph N/A   Clear
10:36 PM 8.6 °F -5.5 °F 1.4 °F 73% 30.52 in 10.0 mi NNE 10.4 mph 16.1 mph N/A   Clear
10:56 PM 8.6 °F -7.0 °F 1.4 °F 73% 30.53 in 10.0 mi NNE 12.7 mph 18.4 mph N/A   Clear
11:16 PM 8.6 °F -7.7 °F 1.4 °F 73% 30.52 in 10.0 mi NNE 13.8 mph 19.6 mph N/A   Clear
11:36 PM 6.8 °F -8.6 °F 1.4 °F 79% 30.53 in 10.0 mi NNE 11.5 mph 18.4 mph N/A   Clear
11:56 PM 6.8 °F -10.0 °F -0.4 °F 72% 30.53 in 10.0 mi NNE 13.8 mph 19.6 mph N/A   Clear